20040123,000012,1486634,35.795167,-122.551333,NaN,12.564,33.042,38.503,  NaN,0.0, NaN, NaN, NaN, NaN, NaN,298.451,12.50,1023.95,87.00,NaN,303.0,NaN,11.5,NaN,333.5,NaN,8.5,NaN,NaN, NaN,NaN,59.0,NaN,NaN,NaN,2,9.5,000009,   NaN,54.0,     NaN,      NaN,NaN,5.9,NaN,12.567, NaN,NaN,NaN, NaN, NaN

20040123,000042,1486664,35.795833,-122.550000,NaN,12.556,33.042,38.496,  NaN,0.0, NaN, NaN, NaN, NaN, NaN,298.275,12.50,1024.02,86.90,NaN,305.0,NaN,10.8,NaN,342.0,NaN,8.0,NaN,NaN, NaN,NaN,59.0,NaN,NaN,NaN,2,9.6,000039,   NaN,53.0,     NaN,      NaN,NaN,6.0,NaN,12.559, NaN,NaN,NaN, NaN, NaN

20040123,000112,1486694,35.796667,-122.548667,NaN,12.551,33.043,38.492,  NaN,0.0, NaN, NaN, NaN, NaN, NaN,298.154,12.50,1023.90,86.40,NaN,307.0,NaN,12.6,NaN,334.4,NaN,10.7,NaN,NaN, NaN,NaN,56.0,NaN,NaN,NaN,2,9.2,000069,   NaN,50.4,     NaN,      NaN,NaN,5.6,NaN,12.554, NaN,NaN,NaN, NaN, NaN

20040123,000142,1486724,35.797333,-122.547333,NaN,12.544,33.044,38.488,  NaN,0.0, NaN, NaN, NaN, NaN, NaN,297.921,12.50,1024.09,86.40,NaN,297.0,NaN,11.7,NaN,48.9,NaN,6.2,NaN,NaN, NaN,NaN,58.0,NaN,NaN,NaN,2,9.4,000099,   NaN,52.7,     NaN,      NaN,NaN,6.1,NaN,12.547, NaN,NaN,NaN, NaN, NaN

20040123,000212,1486754,35.798000,-122.546000,NaN,12.537,33.045,38.482,  NaN,0.0, NaN, NaN, NaN, NaN, NaN,297.715,12.50,1024.02,87.00,NaN,313.0,NaN,10.0,NaN,337.3,NaN,7.7,NaN,NaN, NaN,NaN,59.0,NaN,NaN,NaN,2,9.5,000129,   NaN,52.8,     NaN,      NaN,NaN,5.7,NaN,12.540, NaN,NaN,NaN, NaN, NaN

20040123,000242,1486784,35.798667,-122.544667,NaN,12.533,33.047,38.479,  NaN,0.0, NaN, NaN, NaN, NaN, NaN,297.542,12.50,1024.06,86.40,NaN,314.0,NaN,11.7,NaN,339.3,NaN,9.8,NaN,NaN, NaN,NaN,55.0,NaN,NaN,NaN,2,9.0,000159,   NaN,52.1,     NaN,      NaN,NaN,6.0,NaN,12.536, NaN,NaN,NaN, NaN, NaN

20040123,000312,1486814,35.799333,-122.543333,NaN,12.528,33.046,38.475,  NaN,0.0, NaN, NaN, NaN, NaN, NaN,297.471,12.30,1023.72,86.50,NaN,315.0,NaN,11.1,NaN,342.4,NaN,8.3,NaN,NaN, NaN,NaN,57.0,NaN,NaN,NaN,2,9.1,000189,   NaN,50.8,     NaN,      NaN,NaN,5.5,NaN,12.531, NaN,NaN,NaN, NaN, NaN

20040123,000342,1486844,35.800000,-122.542000,NaN,12.521,33.048,38.470,  NaN,0.0, NaN, NaN, NaN, NaN, NaN,297.261,12.50,1023.82,87.00,NaN,307.0,NaN,11.0,NaN,342.1,NaN,8.5,NaN,NaN, NaN,NaN,60.0,NaN,NaN,NaN,2,9.1,000219,   NaN,53.9,     NaN,      NaN,NaN,5.8,NaN,12.524, NaN,NaN,NaN, NaN, NaN

20040123,000412,1486874,35.800833,-122.540667,NaN,12.514,33.047,38.463,  NaN,0.0, NaN, NaN, NaN, NaN, NaN,297.179,12.50,1023.98,87.10,NaN,298.0,NaN,11.1,NaN,329.3,NaN,9.4,NaN,NaN, NaN,NaN,57.0,NaN,NaN,NaN,2,9.3,000249,   NaN,50.3,     NaN,      NaN,NaN,5.8,NaN,12.517, NaN,NaN,NaN, NaN, NaN

20040123,000442,1486904,35.801500,-122.539333,NaN,12.564,33.041,38.502,  NaN,0.0, NaN, NaN, NaN, NaN, NaN,298.547,12.50,1023.81,87.10,NaN,311.0,NaN,10.8,NaN,339.3,NaN,8.7,NaN,NaN, NaN,NaN,57.0,NaN,NaN,NaN,2,9.4,000279,   NaN,51.9,     NaN,      NaN,NaN,5.8,NaN,12.567, NaN,NaN,NaN, NaN, NaN

20040123,000512,1486934,35.802167,-122.538000,NaN,12.634,33.035,38.560,  NaN,0.0, NaN, NaN, NaN, NaN, NaN,300.249,12.50,1024.02,87.10,NaN,306.0,NaN,9.9,NaN,330.2,NaN,8.1,NaN,NaN, NaN,NaN,56.0,NaN,NaN,NaN,2,9.0,000309,   NaN,52.4,     NaN,      NaN,NaN,6.0,NaN,12.637, NaN,NaN,NaN, NaN, NaN

20040123,000542,1486964,35.803000,-122.536833,NaN,12.661,33.036,38.586,  NaN,0.0, NaN, NaN, NaN, NaN, NaN,300.665,12.50,1023.92,87.10,NaN,306.0,NaN,11.8,NaN,340.2,NaN,9.6,NaN,NaN, NaN,NaN,55.0,NaN,NaN,NaN,2,9.2,000339,   NaN,52.4,     NaN,      NaN,NaN,6.0,NaN,12.664, NaN,NaN,NaN, NaN, NaN

20040123,000612,1486994,35.803667,-122.535500,NaN,12.686,33.035,38.608,  NaN,0.0, NaN, NaN, NaN, NaN, NaN,301.190,12.30,1023.98,87.00,NaN,299.0,NaN,11.6,NaN,329.1,NaN,10.0,NaN,NaN, NaN,NaN,57.0,NaN,NaN,NaN,2,9.3,000369,   NaN,54.9,     NaN,      NaN,NaN,5.8,NaN,12.689, NaN,NaN,NaN, NaN, NaN

20040123,000642,1487024,35.804333,-122.534000,NaN,12.704,33.033,38.623,  NaN,0.0, NaN, NaN, NaN, NaN, NaN,301.679,12.50,1023.85,87.20,NaN,310.0,NaN,9.1,NaN,339.3,NaN,8.1,NaN,NaN, NaN,NaN,59.0,NaN,NaN,NaN,2,9.2,000399,   NaN,52.8,     NaN,      NaN,NaN,5.7,NaN,12.707, NaN,NaN,NaN, NaN, NaN

20040123,000712,1487054,35.805000,-122.532833,NaN,12.721,33.031,38.637,  NaN,0.0, NaN, NaN, NaN, NaN, NaN,302.123,12.50,1023.90,87.60,NaN,310.0,NaN,9.3,NaN,322.9,NaN,8.5,NaN,NaN, NaN,NaN,56.0,NaN,NaN,NaN,2,9.3,000429,   NaN,50.0,     NaN,      NaN,NaN,5.9,NaN,12.724, NaN,NaN,NaN, NaN, NaN

20040123,000742,1487084,35.805833,-122.531500,NaN,12.735,33.030,38.648,  NaN,0.0, NaN, NaN, NaN, NaN, NaN,302.491,12.50,1023.71,87.40,NaN,300.0,NaN,10.8,NaN,338.9,NaN,8.4,NaN,NaN, NaN,NaN,55.0,NaN,NaN,NaN,2,9.1,000459,   NaN,49.7,     NaN,      NaN,NaN,5.8,NaN,12.738, NaN,NaN,NaN, NaN, NaN

20040123,000812,1487114,35.806500,-122.530333,NaN,12.752,33.028,38.661,  NaN,0.0, NaN, NaN, NaN, NaN, NaN,302.961,12.50,1023.75,87.20,NaN,310.0,NaN,11.7,NaN,339.7,NaN,8.8,NaN,NaN, NaN,NaN,59.0,NaN,NaN,NaN,2,9.1,000489,   NaN,53.7,     NaN,      NaN,NaN,5.8,NaN,12.755, NaN,NaN,NaN, NaN, NaN

20040123,000842,1487144,35.807167,-122.529000,NaN,12.765,33.027,38.673,  NaN,0.0, NaN, NaN, NaN, NaN, NaN,303.253,12.50,1023.86,87.40,NaN,306.0,NaN,11.9,NaN,334.3,NaN,9.8,NaN,NaN, NaN,NaN,56.0,NaN,NaN,NaN,2,8.8,000519,   NaN,51.9,     NaN,      NaN,NaN,6.0,NaN,12.769, NaN,NaN,NaN, NaN, NaN

20040123,000912,1487174,35.808000,-122.527667,NaN,12.778,33.026,38.684,  NaN,0.0, NaN, NaN, NaN, NaN, NaN,303.578,12.50,1023.96,87.40,NaN,306.0,NaN,12.3,NaN,331.1,NaN,9.1,NaN,NaN, NaN,NaN,53.0,NaN,NaN,NaN,2,9.1,000549,   NaN,50.5,     NaN,      NaN,NaN,5.7,NaN,12.781, NaN,NaN,NaN, NaN, NaN

20040123,000942,1487204,35.808667,-122.526333,NaN,12.789,33.025,38.693,  NaN,0.0, NaN, NaN, NaN, NaN, NaN,303.835,12.50,1023.92,87.80,NaN,301.0,NaN,10.6,NaN,323.4,NaN,8.6,NaN,NaN, NaN,NaN,57.0,NaN,NaN,NaN,2,9.2,000579,   NaN,54.6,     NaN,      NaN,NaN,5.7,NaN,12.792, NaN,NaN,NaN, NaN, NaN

20040123,001012,1487234,35.809333,-122.525000,NaN,12.792,33.025,38.696,  NaN,0.0, NaN, NaN, NaN, NaN, NaN,303.869,12.50,1023.83,87.60,NaN,304.0,NaN,12.2,NaN,337.2,NaN,9.7,NaN,NaN, NaN,NaN,59.0,NaN,NaN,NaN,2,9.3,000609,   NaN,55.1,     NaN,      NaN,NaN,5.6,NaN,12.795, NaN,NaN,NaN, NaN, NaN

20040123,001042,1487264,35.810167,-122.523833,NaN,12.791,33.025,38.695,  NaN,0.0, NaN, NaN, NaN, NaN, NaN,303.850,12.30,1024.04,87.50,NaN,312.0,NaN,11.9,NaN,332.4,NaN,10.0,NaN,NaN, NaN,NaN,53.0,NaN,NaN,NaN,2,9.0,000639,   NaN,51.9,     NaN,      NaN,NaN,5.7,NaN,12.794, NaN,NaN,NaN, NaN, NaN

20040123,001112,1487294,35.810833,-122.522500,NaN,12.790,33.025,38.694,  NaN,0.0, NaN, NaN, NaN, NaN, NaN,303.853,12.50,1023.85,87.90,NaN,304.0,NaN,11.2,NaN,333.9,NaN,8.1,NaN,NaN, NaN,NaN,57.0,NaN,NaN,NaN,2,9.1,000669,   NaN,53.1,     NaN,      NaN,NaN,5.6,NaN,12.793, NaN,NaN,NaN, NaN, NaN

20040123,001142,1487324,35.811500,-122.521167,NaN,12.790,33.025,38.694,  NaN,0.0, NaN, NaN, NaN, NaN, NaN,303.853,12.50,1023.88,87.50,NaN,302.0,NaN,12.7,NaN,335.2,NaN,10.8,NaN,NaN, NaN,NaN,58.0,NaN,NaN,NaN,2,9.2,000699,   NaN,53.7,     NaN,      NaN,NaN,6.1,NaN,12.793, NaN,NaN,NaN, NaN, NaN

20040123,001212,1487354,35.812333,-122.520000,NaN,12.789,33.026,38.693,  NaN,0.0, NaN, NaN, NaN, NaN, NaN,303.763,12.30,1023.78,87.40,NaN,300.0,NaN,11.4,NaN,335.7,NaN,10.0,NaN,NaN, NaN,NaN,54.0,NaN,NaN,NaN,2,9.3,000729,   NaN,50.3,     NaN,      NaN,NaN,5.6,NaN,12.792, NaN,NaN,NaN, NaN, NaN

20040123,001242,1487384,35.813000,-122.518667,NaN,12.782,33.026,38.687,  NaN,0.0, NaN, NaN, NaN, NaN, NaN,303.630,12.30,1023.88,87.60,NaN,298.0,NaN,11.7,NaN,47.8,NaN,6.5,NaN,NaN, NaN,NaN,54.0,NaN,NaN,NaN,2,9.2,000759,   NaN,52.0,     NaN,      NaN,NaN,5.5,NaN,12.785, NaN,NaN,NaN, NaN, NaN

20040123,001312,1487414,35.813833,-122.517333,NaN,12.778,33.025,38.683,  NaN,0.0, NaN, NaN, NaN, NaN, NaN,303.626,12.50,1023.83,87.40,NaN,304.0,NaN,11.7,NaN,328.1,NaN,9.0,NaN,NaN, NaN,NaN,56.0,NaN,NaN,NaN,2,9.2,000789,   NaN,53.7,     NaN,      NaN,NaN,5.6,NaN,12.781, NaN,NaN,NaN, NaN, NaN

20040123,001342,1487444,35.814500,-122.516167,NaN,12.774,33.026,38.679,  NaN,0.0, NaN, NaN, NaN, NaN, NaN,303.525,12.50,1023.91,87.00,NaN,304.0,NaN,11.8,NaN,328.9,NaN,9.9,NaN,NaN, NaN,NaN,54.0,NaN,NaN,NaN,2,9.2,000819,   NaN,53.1,     NaN,      NaN,NaN,5.9,NaN,12.777, NaN,NaN,NaN, NaN, NaN

20040123,001412,1487474,35.815167,-122.514833,NaN,12.771,33.026,38.677,  NaN,0.0, NaN, NaN, NaN, NaN, NaN,303.418,12.30,1023.88,86.60,NaN,301.0,NaN,13.1,NaN,324.4,NaN,10.7,NaN,NaN, NaN,NaN,54.0,NaN,NaN,NaN,2,9.1,000849,   NaN,53.3,     NaN,      NaN,NaN,5.7,NaN,12.774, NaN,NaN,NaN, NaN, NaN

20040123,001442,1487504,35.816000,-122.513500,NaN,12.768,33.027,38.675,  NaN,0.0, NaN, NaN, NaN, NaN, NaN,303.337,12.30,1023.85,86.90,NaN,303.0,NaN,11.6,NaN,335.3,NaN,10.1,NaN,NaN, NaN,NaN,56.0,NaN,NaN,NaN,2,9.3,000879,   NaN,51.2,     NaN,      NaN,NaN,5.8,NaN,12.771, NaN,NaN,NaN, NaN, NaN

20040123,001512,1487534,35.816667,-122.512167,NaN,12.761,33.027,38.668,  NaN,0.0, NaN, NaN, NaN, NaN, NaN,303.184,12.50,1023.69,86.60,NaN,297.0,NaN,11.0,NaN,331.2,NaN,8.8,NaN,NaN, NaN,NaN,59.0,NaN,NaN,NaN,2,9.1,000909,   NaN,52.6,     NaN,      NaN,NaN,5.5,NaN,12.763, NaN,NaN,NaN, NaN, NaN

20040123,001542,1487564,35.817333,-122.511000,NaN,12.749,33.027,38.658,  NaN,0.0, NaN, NaN, NaN, NaN, NaN,302.930,12.50,1023.86,86.70,NaN,299.0,NaN,10.8,NaN,334.3,NaN,8.9,NaN,NaN, NaN,NaN,60.0,NaN,NaN,NaN,2,9.1,000939,   NaN,53.7,     NaN,      NaN,NaN,5.7,NaN,12.752, NaN,NaN,NaN, NaN, NaN

20040123,001612,1487594,35.818000,-122.509667,NaN,12.734,33.030,38.647,  NaN,0.0, NaN, NaN, NaN, NaN, NaN,302.496,12.50,1023.87,87.00,NaN,302.0,NaN,11.7,NaN,334.5,NaN,10.2,NaN,NaN, NaN,NaN,57.0,NaN,NaN,NaN,2,8.9,000969,   NaN,54.7,     NaN,      NaN,NaN,5.6,NaN,12.737, NaN,NaN,NaN, NaN, NaN

20040123,001642,1487624,35.818667,-122.508333,NaN,12.784,33.018,38.681,  NaN,0.0, NaN, NaN, NaN, NaN, NaN,304.257,12.50,1023.93,86.90,NaN,298.0,NaN,11.7,NaN,329.2,NaN,10.4,NaN,NaN, NaN,NaN,58.0,NaN,NaN,NaN,2,9.3,000999,   NaN,55.5,     NaN,      NaN,NaN,5.7,NaN,12.787, NaN,NaN,NaN, NaN, NaN

20040123,001712,1487654,35.819333,-122.507000,NaN,12.816,33.017,38.708,  NaN,0.0, NaN, NaN, NaN, NaN, NaN,304.940,12.50,1023.85,86.70,NaN,299.0,NaN,10.3,NaN,335.4,NaN,9.7,NaN,NaN, NaN,NaN,59.0,NaN,NaN,NaN,2,9.1,001029,   NaN,55.7,     NaN,      NaN,NaN,6.1,NaN,12.819, NaN,NaN,NaN, NaN, NaN

20040123,001742,1487684,35.820000,-122.505667,NaN,12.816,33.016,38.708,  NaN,0.0, NaN, NaN, NaN, NaN, NaN,304.987,12.50,1024.00,87.00,NaN,292.0,NaN,12.9,NaN,328.9,NaN,11.3,NaN,NaN, NaN,NaN,55.0,NaN,NaN,NaN,2,9.0,001059,   NaN,54.2,     NaN,      NaN,NaN,5.8,NaN,12.819, NaN,NaN,NaN, NaN, NaN

20040123,001812,1487714,35.820833,-122.504333,NaN,12.841,33.013,38.727,  NaN,0.0, NaN, NaN, NaN, NaN, NaN,305.731,12.60,1023.85,87.40,NaN,298.0,NaN,9.3,NaN,332.7,NaN,7.9,NaN,NaN, NaN,NaN,58.0,NaN,NaN,NaN,2,9.2,001089,   NaN,54.7,     NaN,      NaN,NaN,5.7,NaN,12.844, NaN,NaN,NaN, NaN, NaN

20040123,001842,1487744,35.821333,-122.503000,NaN,12.830,33.014,38.719,  NaN,0.0, NaN, NaN, NaN, NaN, NaN,305.398,12.60,1023.81,87.10,NaN,294.0,NaN,11.0,NaN,328.2,NaN,9.7,NaN,NaN, NaN,NaN,58.0,NaN,NaN,NaN,2,8.9,001119,   NaN,57.1,     NaN,      NaN,NaN,5.6,NaN,12.833, NaN,NaN,NaN, NaN, NaN

20040123,001912,1487774,35.822000,-122.501667,NaN,12.846,33.010,38.729,  NaN,0.0, NaN, NaN, NaN, NaN, NaN,306.022,12.60,1023.79,87.40,NaN,298.0,NaN,12.4,NaN,334.1,NaN,10.6,NaN,NaN, NaN,NaN,60.0,NaN,NaN,NaN,2,9.2,001149,   NaN,55.6,     NaN,      NaN,NaN,5.4,NaN,12.849, NaN,NaN,NaN, NaN, NaN

20040123,001942,1487804,35.822667,-122.500333,NaN,12.861,33.007,38.740,  NaN,0.0, NaN, NaN, NaN, NaN, NaN,306.525,12.60,1023.70,87.40,NaN,299.0,NaN,11.7,NaN,336.9,NaN,9.5,NaN,NaN, NaN,NaN,61.0,NaN,NaN,NaN,2,9.3,001179,   NaN,57.3,     NaN,      NaN,NaN,5.7,NaN,12.864, NaN,NaN,NaN, NaN, NaN

20040123,002012,1487834,35.823333,-122.499000,NaN,12.858,33.009,38.740,  NaN,0.0, NaN, NaN, NaN, NaN, NaN,306.319,12.60,1023.76,86.90,NaN,298.0,NaN,13.5,NaN,330.5,NaN,11.3,NaN,NaN, NaN,NaN,59.0,NaN,NaN,NaN,2,8.9,001209,   NaN,55.5,     NaN,      NaN,NaN,5.9,NaN,12.862, NaN,NaN,NaN, NaN, NaN

20040123,002042,1487864,35.824000,-122.497667,NaN,12.857,33.008,38.736,  NaN,0.0, NaN, NaN, NaN, NaN, NaN,306.402,12.50,1023.76,86.70,NaN,302.0,NaN,10.5,NaN,328.3,NaN,9.9,NaN,NaN, NaN,NaN,59.0,NaN,NaN,NaN,2,9.0,001239,   NaN,57.6,     NaN,      NaN,NaN,5.6,NaN,12.860, NaN,NaN,NaN, NaN, NaN

20040123,002112,1487894,35.824667,-122.496333,NaN,12.866,33.005,38.742,  NaN,0.0, NaN, NaN, NaN, NaN, NaN,306.790,12.60,1023.86,86.70,NaN,303.0,NaN,12.7,NaN,327.9,NaN,11.4,NaN,NaN, NaN,NaN,59.0,NaN,NaN,NaN,2,8.9,001269,   NaN,56.9,     NaN,      NaN,NaN,5.6,NaN,12.870, NaN,NaN,NaN, NaN, NaN

20040123,002142,1487924,35.825167,-122.495000,NaN,12.889,33.001,38.759,  NaN,0.0, NaN, NaN, NaN, NaN, NaN,307.452,12.60,1023.90,86.60,NaN,303.0,NaN,11.2,NaN,330.8,NaN,10.2,NaN,NaN, NaN,NaN,60.0,NaN,NaN,NaN,2,9.1,001299,   NaN,57.0,     NaN,      NaN,NaN,5.9,NaN,12.892, NaN,NaN,NaN, NaN, NaN

20040123,002212,1487954,35.825833,-122.493667,NaN,12.899,33.001,38.769,  NaN,0.0, NaN, NaN, NaN, NaN, NaN,307.642,12.60,1023.86,86.70,NaN,297.0,NaN,11.8,NaN,328.7,NaN,10.4,NaN,NaN, NaN,NaN,59.0,NaN,NaN,NaN,2,8.7,001329,   NaN,55.4,     NaN,      NaN,NaN,6.0,NaN,12.902, NaN,NaN,NaN, NaN, NaN

20040123,002242,1487984,35.826500,-122.492333,NaN,12.905,33.000,38.773,  NaN,0.0, NaN, NaN, NaN, NaN, NaN,307.849,12.60,1023.76,87.10,NaN,358.0,NaN,10.3,NaN,334.5,NaN,8.7,NaN,NaN, NaN,NaN,58.0,NaN,NaN,NaN,2,8.9,001359,   NaN,55.5,     NaN,      NaN,NaN,5.8,NaN,12.908, NaN,NaN,NaN, NaN, NaN

20040123,002312,1488014,35.827167,-122.491000,NaN,12.911,32.999,38.777,  NaN,0.0, NaN, NaN, NaN, NaN, NaN,308.039,12.60,1023.73,87.10,NaN,301.0,NaN,10.4,NaN,331.6,NaN,9.7,NaN,NaN, NaN,NaN,60.0,NaN,NaN,NaN,2,8.9,001389,   NaN,57.0,     NaN,      NaN,NaN,5.6,NaN,12.914, NaN,NaN,NaN, NaN, NaN

20040123,002342,1488044,35.827833,-122.489667,NaN,12.912,33.000,38.780,  NaN,0.0, NaN, NaN, NaN, NaN, NaN,308.005,12.60,1023.76,86.60,NaN,297.0,NaN,11.6,NaN,332.6,NaN,10.2,NaN,NaN, NaN,NaN,60.0,NaN,NaN,NaN,2,8.9,001419,   NaN,57.0,     NaN,      NaN,NaN,5.7,NaN,12.915, NaN,NaN,NaN, NaN, NaN

20040123,002412,1488074,35.828333,-122.488333,NaN,12.916,32.998,38.782,  NaN,0.0, NaN, NaN, NaN, NaN, NaN,308.203,12.60,1023.78,86.20,NaN,299.0,NaN,13.1,NaN,333.3,NaN,12.5,NaN,NaN, NaN,NaN,62.0,NaN,NaN,NaN,2,9.1,001449,   NaN,59.9,     NaN,      NaN,NaN,5.8,NaN,12.920, NaN,NaN,NaN, NaN, NaN

20040123,002442,1488104,35.829000,-122.487000,NaN,12.919,32.998,38.784,  NaN,0.0, NaN, NaN, NaN, NaN, NaN,308.239,12.60,1023.91,86.20,NaN,304.0,NaN,12.2,NaN,325.3,NaN,10.7,NaN,NaN, NaN,NaN,60.0,NaN,NaN,NaN,2,9.0,001479,   NaN,56.9,     NaN,      NaN,NaN,5.9,NaN,12.922, NaN,NaN,NaN, NaN, NaN

20040123,002512,1488134,35.829500,-122.485667,NaN,12.917,33.000,38.784,  NaN,0.0, NaN, NaN, NaN, NaN, NaN,308.079,12.60,1023.74,86.10,NaN,300.0,NaN,12.9,NaN,330.2,NaN,11.6,NaN,NaN, NaN,NaN,61.0,NaN,NaN,NaN,2,9.4,001509,   NaN,56.7,     NaN,      NaN,NaN,5.7,NaN,12.920, NaN,NaN,NaN, NaN, NaN

20040123,002542,1488164,35.830167,-122.484333,NaN,12.917,33.000,38.784,  NaN,0.0, NaN, NaN, NaN, NaN, NaN,308.101,12.60,1023.83,86.10,NaN,298.0,NaN,11.1,NaN,52.6,NaN,6.7,NaN,NaN, NaN,NaN,58.0,NaN,NaN,NaN,2,8.9,001539,   NaN,56.5,     NaN,      NaN,NaN,5.8,NaN,12.920, NaN,NaN,NaN, NaN, NaN

20040123,002612,1488194,35.830833,-122.483000,NaN,12.917,33.000,38.784,  NaN,0.0, NaN, NaN, NaN, NaN, NaN,308.080,12.50,1023.92,85.70,NaN,302.0,NaN,11.5,NaN,330.6,NaN,11.2,NaN,NaN, NaN,NaN,59.0,NaN,NaN,NaN,2,9.0,001569,   NaN,56.6,     NaN,      NaN,NaN,5.9,NaN,12.920, NaN,NaN,NaN, NaN, NaN

20040123,002642,1488224,35.831500,-122.481667,NaN,12.918,33.000,38.786,  NaN,0.0, NaN, NaN, NaN, NaN, NaN,308.072,12.50,1023.76,86.00,NaN,298.0,NaN,10.8,NaN,337.6,NaN,9.0,NaN,NaN, NaN,NaN,60.0,NaN,NaN,NaN,2,8.8,001599,   NaN,54.3,     NaN,      NaN,NaN,5.6,NaN,12.921, NaN,NaN,NaN, NaN, NaN

20040123,002712,1488254,35.832167,-122.480333,NaN,12.927,33.000,38.793,  NaN,0.0, NaN, NaN, NaN, NaN, NaN,308.244,12.60,1023.89,86.70,NaN,296.0,NaN,10.9,NaN,334.0,NaN,9.9,NaN,NaN, NaN,NaN,64.0,NaN,NaN,NaN,2,8.9,001629,   NaN,59.2,     NaN,      NaN,NaN,5.6,NaN,12.930, NaN,NaN,NaN, NaN, NaN

20040123,002742,1488284,35.832667,-122.479000,NaN,12.932,32.999,38.797,  NaN,0.0, NaN, NaN, NaN, NaN, NaN,308.432,12.60,1023.81,86.20,NaN,299.0,NaN,11.3,NaN,339.6,NaN,8.8,NaN,NaN, NaN,NaN,62.0,NaN,NaN,NaN,2,9.1,001659,   NaN,56.9,     NaN,      NaN,NaN,5.9,NaN,12.935, NaN,NaN,NaN, NaN, NaN

20040123,002812,1488314,35.833333,-122.477667,NaN,12.929,33.000,38.795,  NaN,0.0, NaN, NaN, NaN, NaN, NaN,308.302,12.50,1023.76,86.10,NaN,293.0,NaN,11.0,NaN,338.2,NaN,10.6,NaN,NaN, NaN,NaN,58.0,NaN,NaN,NaN,2,8.8,001689,   NaN,56.7,     NaN,      NaN,NaN,5.8,NaN,12.932, NaN,NaN,NaN, NaN, NaN

20040123,002842,1488344,35.833833,-122.476333,NaN,12.923,33.002,38.791,  NaN,0.0, NaN, NaN, NaN, NaN, NaN,308.070,12.50,1023.93,86.00,NaN,296.0,NaN,12.6,NaN,336.9,NaN,11.1,NaN,NaN, NaN,NaN,62.0,NaN,NaN,NaN,2,9.3,001719,   NaN,59.1,     NaN,      NaN,NaN,5.8,NaN,12.926, NaN,NaN,NaN, NaN, NaN

20040123,002912,1488374,35.834500,-122.475000,NaN,12.918,33.005,38.790,  NaN,0.0, NaN, NaN, NaN, NaN, NaN,307.733,12.60,1023.83,86.60,NaN,296.0,NaN,10.5,NaN,325.2,NaN,8.1,NaN,NaN, NaN,NaN,62.0,NaN,NaN,NaN,2,9.1,001749,   NaN,58.2,     NaN,      NaN,NaN,5.7,NaN,12.921, NaN,NaN,NaN, NaN, NaN

20040123,002942,1488404,35.835167,-122.473500,NaN,12.910,33.004,38.782,  NaN,0.0, NaN, NaN, NaN, NaN, NaN,307.673,12.60,1023.71,86.20,NaN,306.0,NaN,12.2,NaN,336.3,NaN,10.9,NaN,NaN, NaN,NaN,63.0,NaN,NaN,NaN,2,9.0,001779,   NaN,58.0,     NaN,      NaN,NaN,5.6,NaN,12.913, NaN,NaN,NaN, NaN, NaN

20040123,003012,1488434,35.835667,-122.472167,NaN,12.899,33.007,38.774,  NaN,0.0, NaN, NaN, NaN, NaN, NaN,307.271,12.60,1023.77,85.70,NaN,299.0,NaN,12.0,NaN,336.6,NaN,10.6,NaN,NaN, NaN,NaN,60.0,NaN,NaN,NaN,2,9.0,001809,   NaN,55.4,     NaN,      NaN,NaN,5.5,NaN,12.902, NaN,NaN,NaN, NaN, NaN

20040123,003042,1488464,35.836333,-122.470833,NaN,12.887,33.009,38.766,  NaN,0.0, NaN, NaN, NaN, NaN, NaN,306.826,12.50,1023.75,85.80,NaN,298.0,NaN,12.6,NaN,335.1,NaN,12.0,NaN,NaN, NaN,NaN,61.0,NaN,NaN,NaN,2,9.1,001839,   NaN,56.3,     NaN,      NaN,NaN,5.5,NaN,12.890, NaN,NaN,NaN, NaN, NaN

20040123,003112,1488494,35.837000,-122.469500,NaN,12.869,33.014,38.754,  NaN,0.0, NaN, NaN, NaN, NaN, NaN,306.188,12.50,1023.70,86.00,NaN,294.0,NaN,12.2,NaN,329.3,NaN,9.9,NaN,NaN, NaN,NaN,58.0,NaN,NaN,NaN,2,9.1,001869,   NaN,54.8,     NaN,      NaN,NaN,5.7,NaN,12.872, NaN,NaN,NaN, NaN, NaN

20040123,003142,1488524,35.837667,-122.468167,NaN,12.852,33.015,38.740,  NaN,0.0, NaN, NaN, NaN, NaN, NaN,305.746,12.50,1023.80,86.10,NaN,288.0,NaN,11.4,NaN,55.1,NaN,6.4,NaN,NaN, NaN,NaN,64.0,NaN,NaN,NaN,2,9.0,001899,   NaN,59.3,     NaN,      NaN,NaN,5.9,NaN,12.855, NaN,NaN,NaN, NaN, NaN

20040123,003212,1488554,35.838333,-122.466833,NaN,12.829,33.021,38.725,  NaN,0.0, NaN, NaN, NaN, NaN, NaN,304.912,12.60,1023.93,86.20,NaN,298.0,NaN,10.9,NaN,323.8,NaN,8.2,NaN,NaN, NaN,NaN,60.0,NaN,NaN,NaN,2,9.3,001929,   NaN,56.7,     NaN,      NaN,NaN,5.7,NaN,12.832, NaN,NaN,NaN, NaN, NaN

20040123,003242,1488584,35.838833,-122.465500,NaN,12.812,33.022,38.711,  NaN,0.0, NaN, NaN, NaN, NaN, NaN,304.495,12.60,1023.96,86.20,NaN,298.0,NaN,12.2,NaN,334.5,NaN,10.4,NaN,NaN, NaN,NaN,64.0,NaN,NaN,NaN,2,9.2,001959,   NaN,59.9,     NaN,      NaN,NaN,5.9,NaN,12.815, NaN,NaN,NaN, NaN, NaN

20040123,003312,1488614,35.839500,-122.464000,NaN,12.796,33.024,38.698,  NaN,0.0, NaN, NaN, NaN, NaN, NaN,304.089,12.60,1023.80,86.40,NaN,297.0,NaN,11.1,NaN,331.8,NaN,10.3,NaN,NaN, NaN,NaN,60.0,NaN,NaN,NaN,2,9.1,001989,   NaN,56.5,     NaN,      NaN,NaN,5.7,NaN,12.799, NaN,NaN,NaN, NaN, NaN

20040123,003342,1488644,35.840167,-122.462667,NaN,12.787,33.024,38.690,  NaN,0.0, NaN, NaN, NaN, NaN, NaN,303.872,12.60,1023.80,86.70,NaN,297.0,NaN,11.9,NaN,335.1,NaN,11.2,NaN,NaN, NaN,NaN,62.0,NaN,NaN,NaN,2,9.0,002019,   NaN,58.4,     NaN,      NaN,NaN,5.8,NaN,12.790, NaN,NaN,NaN, NaN, NaN

20040123,003412,1488674,35.840667,-122.461333,NaN,12.782,33.023,38.684,  NaN,0.0, NaN, NaN, NaN, NaN, NaN,303.876,12.60,1023.91,86.50,NaN,301.0,NaN,9.6,NaN,328.6,NaN,9.0,NaN,NaN, NaN,NaN,61.0,NaN,NaN,NaN,2,9.2,002049,   NaN,55.6,     NaN,      NaN,NaN,5.7,NaN,12.785, NaN,NaN,NaN, NaN, NaN

20040123,003442,1488704,35.841500,-122.460000,NaN,12.778,33.025,38.683,  NaN,0.0, NaN, NaN, NaN, NaN, NaN,303.629,12.60,1023.71,86.90,NaN,300.0,NaN,11.8,NaN,334.3,NaN,9.8,NaN,NaN, NaN,NaN,59.0,NaN,NaN,NaN,2,9.4,002079,   NaN,56.9,     NaN,      NaN,NaN,5.8,NaN,12.781, NaN,NaN,NaN, NaN, NaN

20040123,003512,1488734,35.842000,-122.458667,NaN,12.776,33.024,38.680,  NaN,0.0, NaN, NaN, NaN, NaN, NaN,303.684,12.60,1023.60,86.90,NaN,304.0,NaN,12.6,NaN,336.1,NaN,12.0,NaN,NaN, NaN,NaN,59.0,NaN,NaN,NaN,2,9.0,002109,   NaN,57.7,     NaN,      NaN,NaN,5.7,NaN,12.779, NaN,NaN,NaN, NaN, NaN

20040123,003542,1488764,35.842667,-122.457333,NaN,12.777,33.023,38.680,  NaN,0.0, NaN, NaN, NaN, NaN, NaN,303.754,12.50,1023.80,86.60,NaN,300.0,NaN,11.9,NaN,334.9,NaN,11.0,NaN,NaN, NaN,NaN,58.0,NaN,NaN,NaN,2,8.9,002139,   NaN,55.5,     NaN,      NaN,NaN,5.6,NaN,12.780, NaN,NaN,NaN, NaN, NaN

20040123,003612,1488794,35.843333,-122.456000,NaN,12.787,33.022,38.687,  NaN,0.0, NaN, NaN, NaN, NaN, NaN,304.043,12.50,1023.73,86.70,NaN,302.0,NaN,11.1,NaN,335.4,NaN,9.4,NaN,NaN, NaN,NaN,59.0,NaN,NaN,NaN,2,9.0,002169,   NaN,56.9,     NaN,      NaN,NaN,5.6,NaN,12.790, NaN,NaN,NaN, NaN, NaN

20040123,003642,1488824,35.844000,-122.454667,NaN,12.817,33.018,38.711,  NaN,0.0, NaN, NaN, NaN, NaN, NaN,304.880,12.50,1023.77,86.60,NaN,358.0,NaN,11.5,NaN,53.9,NaN,7.5,NaN,NaN, NaN,NaN,60.0,NaN,NaN,NaN,2,9.1,002199,   NaN,57.9,     NaN,      NaN,NaN,5.8,NaN,12.820, NaN,NaN,NaN, NaN, NaN

20040123,003712,1488854,35.844500,-122.453333,NaN,12.907,33.000,38.775,  NaN,0.0, NaN, NaN, NaN, NaN, NaN,307.889,12.50,1023.79,86.40,NaN,298.0,NaN,12.4,NaN,337.4,NaN,10.6,NaN,NaN, NaN,NaN,61.0,NaN,NaN,NaN,2,9.0,002229,   NaN,56.0,     NaN,      NaN,NaN,5.6,NaN,12.910, NaN,NaN,NaN, NaN, NaN

20040123,003742,1488884,35.845167,-122.452000,NaN,12.971,32.992,38.825,  NaN,0.0, NaN, NaN, NaN, NaN, NaN,309.690,12.50,1023.68,85.80,NaN,293.0,NaN,13.8,NaN,331.6,NaN,12.5,NaN,NaN, NaN,NaN,62.0,NaN,NaN,NaN,2,9.3,002259,   NaN,58.7,     NaN,      NaN,NaN,5.8,NaN,12.974, NaN,NaN,NaN, NaN, NaN

20040123,003812,1488914,35.845833,-122.450667,NaN,13.000,32.988,38.848,  NaN,0.0, NaN, NaN, NaN, NaN, NaN,310.504,12.50,1023.75,86.00,NaN,301.0,NaN,11.4,NaN,327.2,NaN,10.5,NaN,NaN, NaN,NaN,61.0,NaN,NaN,NaN,2,9.0,002289,   NaN,55.8,     NaN,      NaN,NaN,5.9,NaN,13.003, NaN,NaN,NaN, NaN, NaN

20040123,003842,1488944,35.846500,-122.449333,NaN,13.016,32.986,38.860,  NaN,0.0, NaN, NaN, NaN, NaN, NaN,311.004,12.60,1023.77,86.00,NaN,301.0,NaN,12.0,NaN,336.4,NaN,11.2,NaN,NaN, NaN,NaN,57.0,NaN,NaN,NaN,2,8.6,002319,   NaN,54.4,     NaN,      NaN,NaN,5.8,NaN,13.019, NaN,NaN,NaN, NaN, NaN

20040123,003912,1488974,35.847000,-122.448167,NaN,13.019,32.985,38.862,  NaN,0.0, NaN, NaN, NaN, NaN, NaN,311.136,12.50,1023.68,85.80,NaN,295.0,NaN,12.9,NaN,53.4,NaN,7.6,NaN,NaN, NaN,NaN,62.0,NaN,NaN,NaN,2,9.0,002349,   NaN,57.3,     NaN,      NaN,NaN,5.8,NaN,13.022, NaN,NaN,NaN, NaN, NaN

20040123,003942,1489004,35.847667,-122.446833,NaN,13.017,32.985,38.860,  NaN,0.0, NaN, NaN, NaN, NaN, NaN,311.097,12.50,1023.88,85.80,NaN,289.0,NaN,11.8,NaN,322.5,NaN,11.5,NaN,NaN, NaN,NaN,61.0,NaN,NaN,NaN,2,8.7,002379,   NaN,57.7,     NaN,      NaN,NaN,5.4,NaN,13.020, NaN,NaN,NaN, NaN, NaN

20040123,004012,1489034,35.848333,-122.445500,NaN,13.008,32.986,38.852,  NaN,0.0, NaN, NaN, NaN, NaN, NaN,310.854,12.50,1023.66,86.20,NaN,358.0,NaN,11.2,NaN,330.7,NaN,10.8,NaN,NaN, NaN,NaN,59.0,NaN,NaN,NaN,2,9.0,002409,   NaN,56.1,     NaN,      NaN,NaN,5.7,NaN,13.011, NaN,NaN,NaN, NaN, NaN
